Bēne

Latvia     56˚29′01″N   23˚03′48″E
temp.,
°C
wind,
m/s
gust,
m/s
humid.,
%
clouds,
%
prec.,
mm/h
press.,
hPa
HPBL,
m
29 november, sun
sun2923:00+1˚ene4886100 0.1 1024680
02:00ne389392 0.1 1025475
05:00ene279374 0.0 1025353
08:00−1˚ene379480 0.0 1025323
11:00ene368885 0.0 1025504
14:00+1˚ene258275 0.0 1024576
17:00nne248778 0.1 1023298
20:00−1˚nne249189 0.1 1023405
30 november, mon
mon3023:00−1˚n1297100 0.4 1022141
02:00−2˚e1197100 0.8 102264
05:00−2˚sw019687 0.1 102126
08:00−2˚ssw119792 0.2 102150
11:00−1˚sw239191 0.1 1020242
14:00wsw248895 0.2 1020419
17:00−1˚ssw2688100 0.0 1020260
20:00−1˚ssw489698 0.1 1019346
1 december, tue
tue123:00ssw499594 0.8 1019419
02:00+1˚ssw5109797 1.2 1020510
05:00ssw5109799 1.4 1020450
08:00ssw41094100 1.9 1022495
11:00ssw5989100 0.1 1023484
14:00ssw4885100 0.1 1025545
17:00−1˚ssw388998 0.0 1025353
20:00−1˚s389398 0.0 1027345
2 december, wed
wed223:00−1˚s389096 0.0 1028337
02:00−2˚s269296 0.0 1029212
05:00−2˚s259198 0.0 1029197
08:00−3˚sse269190 0.0 1029211
11:00−2˚sse358492 0.0 1030316
14:00−1˚sse258284 0.0 1028369
17:00−3˚se368947 0.0 1028262
20:00−3˚se378973 0.0 1027288
3 december, thu
thu323:00−3˚se3789100 0.0 1027302
02:00−4˚se379172 0.0 1025251
05:00−4˚se3796100 0.0 1024273
08:00−3˚sse4696100 0.0 1023338
11:00−1˚se4892100 0.1 1022409
14:00−1˚se4792100 0.2 1021510
17:00−1˚se4890100 0.1 1021588
20:00−2˚se499098 0.1 1020463